Location: ?????????
(53.2086°N, 54.0693°E)
Time: 05:55:33
(UTC+00:00)

COSMO-SKYMED 1 - Pass Details

Date: 08 December 2019
Orbit: 621 x 623 km, 97.9° (Epoch: 23 January)

Event Time Altitude Azimuth Distance (km) Brightness Sun altitude
Exits shadow 13:39:21 20° 70° (ENE) 1,475 3.8 -12.9°
Maximum altitude 13:40:28 21° 91° (E) 1,395 3.8 -13.0°
Drops below altitude 10° 13:43:48 10° 142° (SE) 1,993 5.0 -13.5°
Sets 13:46:25 0° 158° (SSE) 2,893 6.0 -13.8°
